Theta_e
313 314 314 314 313 313 313 313 313 312 312 312 312 313 313 313 313 313 313 313 313 314 314 315 316 316 310 304 304 313 331 330 323 314 308 304 298 292 291 294 295 294 297 299 301 302 304
314 314 314 313 313 312 312 312 312 312 312 312 312 312 312 312 312 312 312 313 313 313 313 315 317 317 307 299 311 311 320 319 315 308 305 303 297 298 294 293 292 294 295 296 298 299 300
314 314 313 313 312 312 311 312 311 311 312 313 312 312 311 311 311 312 313 313 312 313 314 315 317 314 303 299 311 306 313 307 305 308 303 303 302 298 296 293 296 296 291 294 296 297 297
313 313 313 313 312 311 311 312 312 313 313 313 313 312 312 312 311 311 312 313 312 313 314 316 318 309 298 313 310 302 302 303 305 306 304 303 303 298 294 294 294 292 289 284 293 296 298
313 313 313 313 312 311 311 312 312 312 312 314 313 313 313 311 311 312 311 312 313 314 316 316 308 304 301 315 304 304 301 301 304 304 303 306 301 295 295 289 285 286 283 286 289 295 295
313 313 313 313 312 312 311 313 313 312 312 312 313 313 312 312 311 311 310 311 312 313 314 314 311 301 304 303 304 305 304 304 301 300 299 299 293 290 288 286 281 284 284 286 287 293 293
312 313 312 312 312 311 311 312 312 312 312 313 313 313 312 312 311 311 307 302 296 298 303 301 304 304 306 305 307 303 305 303 301 296 289 293 286 283 287 290 292 291 288 286 290 295 292
312 312 311 311 311 310 311 312 312 311 312 313 313 313 312 312 312 310 302 299 300 300 293 303 303 303 305 305 298 302 305 297 295 289 291 288 284 290 293 292 290 289 286 285 290 293 292
311 311 311 310 310 311 312 312 312 311 312 312 312 312 311 311 310 305 300 305 306 303 291 299 303 302 302 301 298 298 302 298 292 288 288 285 289 294 292 290 290 287 286 287 288 292 291
311 312 312 310 310 310 312 312 312 311 312 311 311 311 311 311 303 301 301 307 304 302 288 296 296 299 300 298 295 303 303 298 292 288 289 288 292 292 290 290 291 285 293 292 290 287 280
312 312 311 310 310 311 311 312 311 312 311 310 310 311 311 310 299 298 304 304 304 302 278 296 296 302 299 295 297 299 303 297 291 291 290 287 289 288 288 291 293 289 294 290 290 286 283
312 312 311 310 311 311 311 310 311 310 310 309 310 310 310 305 301 303 306 303 303 288 280 292 296 295 293 295 297 298 297 299 297 291 290 290 294 292 292 295 295 294 289 288 287 283 277
312 311 311 310 311 311 311 310 310 309 309 309 309 310 308 307 300 305 303 300 287 282 296 290 291 294 292 292 294 296 294 290 286 283 283 288 288 294 297 290 291 288 283 275 274 275 276
311 311 311 311 311 311 310 309 308 308 308 308 307 307 306 307 304 306 299 292 283 291 290 295 293 293 289 293 292 293 291 287 293 290 284 281 280 290 295 290 286 285 284 276 274 274 277
309 310 311 311 311 310 310 308 307 307 307 306 306 302 305 308 310 302 295 284 284 289 292 291 291 289 289 292 291 290 288 289 292 291 283 282 283 293 294 294 290 284 282 286 280 282 277
309 310 310 311 310 311 309 308 307 307 306 306 298 300 303 308 305 299 291 289 292 295 295 293 286 291 286 288 288 288 289 294 293 295 291 288 281 290 293 293 292 288 290 280 279 274 273
310 310 310 310 310 310 309 307 307 307 306 305 298 297 305 304 303 296 285 290 295 298 297 293 290 288 289 287 287 287 289 293 296 294 292 288 284 285 289 286 285 285 283 284 283 281 273
310 310 310 310 310 309 307 306 306 306 305 301 295 292 305 302 291 291 288 292 296 296 298 295 294 292 289 289 287 287 288 291 297 295 289 290 285 280 284 291 293 289 287 286 277 277 283
310 310 310 310 309 308 306 306 306 306 305 299 293 295 304 302 285 285 291 293 296 295 295 293 291 293 292 288 285 290 291 296 296 294 290 290 283 279 281 284 289 288 288 288 288 286 281
309 310 310 310 308 306 305 305 305 305 304 297 294 289 293 295 292 287 287 289 292 299 296 295 293 293 290 287 290 289 290 295 296 295 301 296 285 283 278 282 285 284 287 289 287 281 282
309 309 310 308 306 305 305 305 305 304 304 298 293 289 290 284 287 288 288 290 290 290 294 293 291 291 288 283 286 287 289 292 294 297 294 290 285 286 288 289 290 289 288 289 287 287 283
309 309 309 307 305 304 304 305 305 304 304 295 288 288 289 287 289 288 289 287 288 291 290 289 288 291 289 284 286 285 289 288 288 292 289 289 283 287 285 290 289 286 288 291 290 291 289
309 309 308 306 305 303 303 303 304 304 301 292 294 294 290 287 287 285 284 288 289 291 292 293 290 288 287 289 293 293 293 293 292 289 288 286 284 282 281 287 287 282 288 289 290 292 290
309 309 307 305 304 303 303 303 302 303 301 292 294 293 287 282 287 287 290 289 289 290 288 292 291 287 293 297 296 294 293 294 293 292 292 286 286 286 283 282 274 287 293 293 290 291 292
308 308 306 305 303 303 302 302 302 302 302 292 293 290 290 282 287 288 289 288 289 290 289 290 292 292 293 291 287 284 288 288 293 295 292 292 287 285 281 280 284 288 291 289 288 287 294
308 308 306 304 303 302 302 302 302 302 302 292 293 293 291 289 285 292 288 288 284 283 286 290 294 294 291 289 286 280 280 286 286 290 297 294 292 286 284 278 270 283 292 295 295 283 293
308 307 305 304 302 302 302 302 302 301 302 296 292 293 290 285 290 289 285 285 287 284 282 288 289 288 291 287 285 282 283 290 285 285 285 287 286 283 282 280 284 291 294 297 282 283 292
308 307 305 303 302 302 302 302 302 302 301 298 292 294 290 289 290 292 292 288 288 286 283 287 288 287 285 286 287 287 284 287 285 288 286 283 279 282 284 281 277 295 294 288 291 293 292
307 306 304 302 302 301 301 301 302 302 301 301 292 295 296 290 289 294 294 295 293 292 289 289 290 290 291 287 288 286 282 284 285 279 290 281 285 285 286 281 291 295 294 296 294 293 295
Wind_Speed
17 17 18 18 19 19 19 19 18 20 20 20 21 21 21 21 20 20 19 18 18 17 17 16 14 11 4 1 8 8 14 10 5 4 5 4 2 3 3 4 4 8 10 10 11 13 13
17 17 18 19 19 19 20 20 20 19 20 20 21 22 22 22 22 21 19 18 17 16 15 14 12 7 2 3 5 8 10 4 8 5 5 6 3 4 1 2 1 5 5 10 7 10 8
16 18 18 18 18 19 20 19 20 20 19 19 20 20 22 24 24 23 20 18 17 16 15 12 6 3 2 12 3 2 7 6 5 8 3 5 3 4 3 8 3 6 7 8 5 3 5
17 18 19 18 18 20 20 22 22 21 20 20 20 21 22 23 23 23 23 21 20 18 15 11 3 2 7 7 5 4 3 7 4 6 4 7 6 4 3 2 8 5 1 1 4 6 5
18 18 18 19 19 20 21 21 22 24 24 22 22 21 22 24 24 23 23 22 22 17 11 7 2 2 9 10 3 3 1 3 4 5 6 7 6 4 2 2 5 3 4 4 5 6 6
19 19 19 19 19 18 22 20 21 23 25 25 23 23 23 23 24 23 23 22 14 7 3 6 4 2 6 2 3 3 3 4 3 6 6 0 4 2 3 4 4 6 6 4 3 3 2
19 19 19 21 22 22 21 21 21 24 25 25 25 25 24 23 22 19 11 5 6 4 2 6 5 4 11 3 1 3 3 1 4 5 2 3 3 4 9 9 11 7 7 6 4 5 4
19 19 21 21 23 23 22 21 21 24 24 25 26 26 26 24 21 16 1 1 3 5 7 9 12 12 16 9 1 6 0 3 2 4 5 8 3 3 5 6 5 7 5 7 4 9 10
19 19 21 22 22 21 21 22 23 25 25 24 25 26 27 26 26 2 3 6 6 6 3 8 6 5 7 7 7 9 4 4 3 1 5 2 9 9 7 7 6 5 4 6 7 12 5
19 18 19 22 21 22 22 23 23 25 24 24 25 26 26 27 3 4 4 6 0 5 4 5 3 4 3 2 4 7 7 6 1 5 4 7 7 4 6 4 3 2 6 9 11 8 3
18 18 19 21 20 21 22 23 24 25 25 26 25 25 24 15 3 3 5 8 2 6 4 7 4 2 2 4 2 4 7 3 7 7 5 12 5 8 4 1 1 5 3 4 6 8 2
21 20 19 20 21 22 22 23 25 27 27 27 27 26 21 1 2 8 8 7 6 6 2 1 3 4 1 5 7 4 6 2 5 5 4 12 5 3 2 1 1 2 4 6 5 1 5
19 20 19 20 21 22 23 23 26 27 28 28 30 27 11 3 4 5 7 5 6 5 7 7 6 6 6 5 6 1 5 4 2 3 4 6 2 3 3 2 4 6 5 4 5 3 6
18 19 19 20 21 22 23 24 25 26 28 30 31 24 3 4 6 6 4 5 7 7 8 6 6 9 2 12 7 8 6 2 6 2 3 1 6 4 5 2 5 4 7 6 5 4 11
19 18 20 21 22 23 22 25 26 27 28 30 23 5 3 5 5 3 6 5 2 5 7 6 6 3 5 9 6 8 7 5 4 4 2 2 4 5 9 8 1 3 3 7 3 8 5
20 19 20 20 21 22 23 25 27 28 29 28 3 4 4 4 3 6 6 2 2 2 4 3 3 4 5 8 7 6 5 2 2 5 2 3 7 7 4 4 2 5 4 2 1 3 6
16 18 19 20 21 22 22 25 26 27 30 24 3 4 5 4 5 6 3 4 5 10 6 2 2 6 4 2 3 5 3 10 3 2 6 3 2 5 3 3 3 4 2 2 1 3 4
15 16 18 19 20 21 23 25 26 27 27 9 3 3 4 5 5 1 1 3 6 7 1 2 1 3 1 4 4 4 6 4 4 3 2 2 1 4 8 18 12 10 6 5 4 6 3
14 16 17 18 20 21 23 25 26 25 20 4 4 3 4 7 3 4 6 5 3 7 4 5 5 5 5 4 3 4 6 5 5 5 6 4 2 4 9 5 6 1 4 4 3 3 6
13 15 16 17 19 20 22 24 26 28 23 1 2 5 6 5 1 2 5 5 5 7 4 4 4 6 5 3 3 5 8 5 4 6 11 8 5 8 9 10 5 12 18 18 12 6 12
13 15 15 17 19 20 20 22 24 27 29 2 4 2 1 5 4 6 2 4 10 5 6 4 5 2 3 4 5 6 4 6 7 9 5 7 7 6 12 17 16 22 21 19 19 17 10
12 14 13 17 18 19 19 20 23 25 28 5 3 3 5 4 5 5 3 2 5 9 5 7 3 7 4 4 8 14 11 4 7 7 7 3 6 4 15 15 15 16 19 12 7 8 12
11 12 13 15 15 16 17 18 19 20 14 4 3 4 4 5 5 3 3 4 9 9 8 7 6 6 6 7 13 12 12 10 12 12 10 7 5 1 18 5 11 11 3 1 3 9 7
12 9 12 14 13 15 16 16 16 15 10 1 3 2 2 5 3 4 9 14 10 11 9 6 5 2 4 12 12 9 12 17 16 18 12 6 5 4 8 4 4 4 3 3 4 11 8
12 8 10 12 12 13 14 15 14 14 13 2 2 2 2 4 5 14 4 4 9 9 4 9 6 5 5 6 4 7 5 4 4 6 7 11 6 3 3 4 7 7 5 4 1 9 8
11 8 9 9 11 12 12 13 14 14 13 2 4 2 1 3 6 6 7 5 4 3 5 4 12 5 5 2 1 3 3 3 4 8 9 6 6 2 1 2 5 6 5 5 4 8 9
10 8 8 9 10 11 12 12 12 12 12 5 4 2 2 3 6 4 5 3 3 2 5 8 7 7 3 2 2 3 4 3 3 3 2 1 2 6 5 5 7 4 6 4 3 7 4
9 8 9 9 9 11 11 12 13 12 11 5 5 2 3 4 12 16 18 12 7 4 4 5 7 4 5 4 2 2 2 3 3 3 4 4 4 3 3 4 8 7 5 6 6 4 5
9 7 9 9 10 11 12 13 13 12 12 10 4 3 1 5 8 15 17 18 18 21 10 3 5 4 3 2 3 4 4 4 2 4 4 3 4 3 6 8 4 5 8 10 6 5 5
Wind_Direction
13 11 10 8 4 2 358 355 353 349 346 344 342 339 337 335 331 326 321 319 317 315 316 320 319 316 351 301 251 245 208 212 203 184 201 198 241 213 212 237 299 256 274 266 264 260 251
13 11 9 7 4 2 358 355 351 347 345 343 340 338 336 333 329 325 321 316 311 309 310 313 312 309 187 290 232 208 199 179 212 188 254 162 233 251 200 318 318 306 315 287 266 277 283
11 10 8 6 4 360 358 353 352 349 342 336 337 335 333 330 327 323 319 313 308 304 303 306 306 260 287 237 228 292 151 219 209 202 209 267 153 68 23 332 329 285 305 313 286 265 262
10 8 7 4 1 359 355 349 346 343 342 337 333 329 327 328 327 322 318 313 303 296 290 289 261 243 248 258 264 250 207 336 15 204 199 245 201 162 165 269 335 324 262 359 317 352 275
7 5 2 360 358 355 349 343 342 342 340 335 332 328 327 328 326 323 318 306 297 292 268 237 181 177 271 310 210 238 153 271 311 300 291 267 114 195 1 68 352 319 252 266 300 241 247
3 2 360 356 355 351 348 341 337 339 339 336 330 327 327 326 327 327 319 300 288 299 184 180 246 313 278 278 172 251 252 230 256 297 313 271 91 148 25 81 245 259 266 249 227 301 5
359 358 356 353 351 348 345 340 339 340 336 333 330 327 327 325 328 329 335 355 12 3 86 220 222 254 297 284 42 298 290 171 355 40 352 304 82 237 247 218 241 263 280 289 277 238 301
359 357 356 353 351 348 346 340 338 341 336 332 330 326 327 326 324 323 211 320 229 207 306 251 241 252 262 255 285 295 336 122 2 307 357 9 289 228 285 307 315 321 319 320 293 315 312
0 356 355 354 350 342 342 341 340 339 336 331 330 328 331 326 321 69 202 244 297 83 7 300 221 213 230 163 218 242 160 176 184 323 324 209 259 299 310 313 352 5 22 342 317 326 330
354 349 349 353 349 347 342 340 338 339 333 331 330 328 333 328 351 348 266 292 126 88 63 269 195 244 163 175 263 221 198 153 182 216 271 259 260 276 302 275 51 360 335 344 329 337 282
353 351 355 349 342 344 341 338 336 335 333 331 329 327 331 319 274 332 280 326 41 60 55 180 174 203 227 178 283 209 182 125 196 217 128 250 272 283 290 55 68 219 359 332 286 278 258
351 349 353 348 343 344 340 339 337 334 333 331 327 325 333 128 232 242 306 298 56 45 26 90 70 8 320 219 255 207 188 157 206 199 219 238 268 114 129 323 84 58 11 352 319 224 244
348 344 342 345 345 340 339 339 338 335 333 330 328 322 317 275 248 312 324 41 50 72 324 7 5 335 321 305 282 306 198 241 30 336 356 343 4 103 117 355 339 77 55 341 335 336 238
347 343 340 344 341 340 340 339 339 336 333 331 328 319 222 218 264 332 31 56 69 350 26 30 345 313 6 13 1 352 357 41 47 58 90 91 324 16 3 231 257 232 170 163 268 270 299
352 347 345 342 339 340 342 340 340 339 336 334 325 333 317 264 246 74 63 50 153 9 4 352 344 348 353 10 351 16 15 65 44 35 98 307 264 307 285 291 355 264 160 208 211 248 255
351 348 345 340 337 339 342 342 341 341 338 334 328 337 277 288 80 58 70 280 294 345 327 18 40 35 342 335 16 25 316 138 93 66 127 311 289 236 286 323 295 161 210 315 316 262 256
351 345 343 340 340 341 345 343 343 345 342 331 40 25 262 49 61 47 107 250 303 327 319 157 254 267 267 349 338 328 280 317 113 41 73 45 166 276 337 254 201 325 288 83 168 170 238
343 345 339 340 343 345 346 346 345 346 346 22 354 47 294 54 45 67 237 277 310 319 307 56 66 45 320 292 265 270 253 238 102 142 119 213 214 284 263 276 258 243 207 154 129 284 262
344 338 340 342 347 350 347 346 345 348 1 324 345 276 331 82 53 334 309 303 256 320 300 219 218 221 250 240 289 269 299 283 215 166 187 177 257 311 317 353 11 180 197 220 232 192 219
342 337 342 350 350 350 349 347 346 345 349 33 14 2 330 30 69 42 353 286 313 318 296 39 4 5 9 304 210 232 282 270 291 234 190 166 192 196 238 260 249 277 274 273 259 236 274
337 338 344 355 351 351 352 350 350 346 342 89 28 338 220 309 323 329 230 271 307 325 9 27 329 345 309 310 314 252 306 306 321 278 177 145 220 230 245 263 276 276 281 281 263 261 237
331 333 347 352 352 353 353 354 352 353 343 69 60 21 345 288 297 314 320 296 315 333 331 300 271 287 275 232 221 275 276 248 229 280 204 199 254 237 271 276 264 286 295 287 293 321 295
321 331 351 349 351 354 353 358 358 2 7 34 318 330 96 284 314 319 224 355 307 318 291 340 338 318 299 302 308 273 257 240 235 237 237 215 226 238 271 341 321 295 202 54 274 237 250
312 336 347 342 349 352 351 353 358 4 25 161 285 340 34 279 286 255 314 305 307 311 279 300 320 328 287 312 296 271 250 257 250 248 212 204 169 177 283 39 256 220 226 235 291 282 273
308 319 343 338 342 348 348 347 352 352 357 107 279 8 296 271 274 293 265 305 299 303 289 296 285 240 294 289 307 321 300 335 258 233 177 200 174 233 247 189 283 205 191 199 247 283 232
301 305 329 333 334 338 342 341 344 344 345 5 269 207 277 288 246 247 318 283 281 303 298 272 304 296 303 219 215 256 271 287 352 335 64 92 109 175 198 262 246 238 180 208 262 263 186
293 293 311 320 325 328 333 334 335 338 336 342 277 13 318 274 266 241 222 240 282 308 263 292 315 328 9 329 254 239 255 10 269 272 279 206 195 234 220 249 276 197 171 194 233 265 165
281 282 295 305 313 318 323 325 323 327 330 325 275 248 176 262 284 260 270 263 271 195 220 309 341 345 351 342 286 317 291 313 313 299 265 217 181 238 223 222 262 176 151 190 220 224 217
271 272 286 298 307 311 315 318 317 318 321 321 279 293 243 235 258 303 268 250 242 243 248 221 242 307 275 336 3 341 327 319 314 286 310 307 168 248 207 227 238 199 257 248 190 221 240